Location: Washington
(38.8950°N, 77.0370°W)
Time: 04:15:31
(UTC-04:00)

IDEFIX/ARIANE 42P - Visible Passes

Search period start: 29 May 2015 00:00
Search period end: 08 June 2015 00:00
Orbit: 786 x 802 km, 98.3° (Epoch: 29 May)

Date Brightness Start Highest point End Pass type
(mag) Time Alt. Az. Time Alt. Az. Time Alt. Az.
30 May 5.2 21:27:30 10° SW 21:30:53 17° W 21:34:03 10° NW visible
31 May 4.5 20:57:42 10° SSW 21:02:19 31° W 21:06:54 10° NW visible
02 Jun 5.4 21:44:08 10° WSW 21:45:59 11° W 21:47:28 10° WNW visible
03 Jun 5.0 21:13:14 10° SW 21:17:20 22° W 21:21:17 10° NW visible
06 Jun 5.2 21:29:08 10° SW 21:32:23 16° W 21:35:21 10° NW visible
07 Jun 4.6 20:59:14 10° SSW 21:03:47 29° W 21:08:17 10° NW visible
